HST 1 20580U 90037B 26119.49850698 .00006626 00000+0 21264-3 0 9999 2 20580 28.4754 53.1938 0001749 330.3355 29.7141 15.30199246781100 POLAR 1 23802U 96013A 26118.74260267 .00000005 00000+0 00000+0 0 9999 2 23802 79.8054 227.6254 6420817 210.7729 86.8948 1.29845833144212 SWAS 1 25560U 98071A 26119.37472278 .00003678 00000+0 23675-3 0 9991 2 25560 69.8979 353.3657 0007441 307.7968 52.2521 15.09281798489903 CXO 1 25867U 99040B 26121.77434247 .00000574 00000+0 00000+0 0 9994 2 25867 55.4326 117.9802 7910128 310.5568 359.9255 0.37807064 17145 XMM-NEWTON 1 25989U 99066A 26119.48249831 -.00000021 00000+0 00000+0 0 9993 2 25989 64.7331 283.6064 4688678 65.7859 0.1035 0.50130503 22768 TERRA 1 25994U 99068A 26119.61709317 .00000430 00000+0 96668-4 0 9999 2 25994 97.9498 171.0798 0003017 49.0717 102.9567 14.61063519402517 CLUSTER II-FM7 (SAMBA) 1 26410U 00041A 26119.05025564 .00002271 00000+0 00000+0 0 9994 2 26410 149.6805 42.4302 8992946 259.0060 0.6082 0.44823564 20095 CLUSTER II-FM8 (TANGO) 1 26464U 00045B 26121.13459255 .00002884 00000+0 00000+0 0 9997 2 26464 149.9674 43.7125 9000108 260.1784 0.5507 0.44400441 20080 ODIN 1 26702U 01007A 26119.61984080 .00046234 00000+0 49722-3 0 9995 2 26702 97.3960 157.9172 0001344 26.0752 334.0574 15.63616976381782 TIMED 1 26998U 01055B 26119.63390319 .00001263 00000+0 11853-3 0 9990 2 26998 74.0680 332.7746 0001604 206.3626 153.7478 14.95176411323562 CORIOLIS 1 27640U 03001A 26119.57612799 .00000132 00000+0 82455-4 0 9991 2 27640 98.7142 127.2010 0013901 358.0437 2.0682 14.19931045207328 SORCE 1 27651U 03004A 26119.58656682 .00003129 00000+0 23614-3 0 9996 2 27651 39.9897 178.9040 0016117 61.2161 299.0250 15.03444031264587 MOST 1 27843U 03031D 26119.56699750 .00000082 00000+0 57723-4 0 9994 2 27843 98.7061 127.9692 0010537 38.3551 321.8373 14.21312124183802 SCISAT 1 1 27858U 03036A 26119.53590187 .00000777 00000+0 10404-3 0 9991 2 27858 73.9291 268.0004 0007712 334.4462 25.6332 14.81391905224242 SWIFT 1 28485U 04047A 26119.45587312 .00041163 00000+0 40847-3 0 9996 2 28485 20.5523 199.4861 0002102 16.3110 343.7403 15.63897823179217 HINODE (SOLAR-B) 1 29479U 06041A 26119.60619175 .00000842 00000+0 15313-3 0 9995 2 29479 98.0575 136.4722 0018951 83.1482 277.1879 14.68551373 47748 SHIJIAN-6 02A (SJ-6 02A) 1 29505U 06046A 26119.59875128 .00005480 00000+0 28578-3 0 9990 2 29505 97.6406 160.3116 0002014 336.8759 23.2382 15.16378786 64902 SHIJIAN-6 02B (SJ-6 02B) 1 29506U 06046B 26119.62495668 .00002031 00000+0 16276-3 0 9993 2 29506 97.7143 148.9884 0010937 226.5861 133.4453 15.01228959 63450 FGRST (GLAST) 1 33053U 08029A 26119.50836641 .00003633 00000+0 13343-3 0 9996 2 33053 25.5811 182.4123 0008682 111.3756 248.7709 15.23682903988402 SDO 1 36395U 10005A 26118.44060934 -.00000054 00000+0 00000+0 0 9998 2 36395 34.5508 87.0908 0001086 30.0564 156.1016 1.00272837 59563 CRYOSAT 2 1 36508U 10013A 26119.56173896 .00000255 00000+0 62693-4 0 9992 2 36508 92.0293 265.4984 0002668 91.8790 268.2723 14.51906802851025 X-SAT 1 37389U 11015C 26119.57293238 .00000041 00000+0 34762-4 0 9996 2 37389 98.3480 98.9212 0014979 122.4091 237.8541 14.25190702780752 GCOM-W1 (SHIZUKU) 1 38337U 12025A 26119.57329767 .00000560 00000+0 13425-3 0 9997 2 38337 98.1998 60.8739 0001318 94.3809 78.8575 14.57123524741959 NUSTAR 1 38358U 12031A 26119.66670139 .00006760 00000+0 36908-3 0 9998 2 38358 6.0274 37.9576 0006668 108.8242 353.0840 15.08333524 4984 NEOSSAT 1 39089U 13009D 26119.49839576 .00000180 00000+0 76867-4 0 9998 2 39089 98.4169 300.6910 0011684 36.9970 323.2020 14.35809178689754 BRITE-AUSTRIA 1 39091U 13009F 26119.45154148 .00000196 00000+0 81105-4 0 9990 2 39091 98.3984 300.0960 0010759 31.9219 328.2617 14.36521998690057 IRIS 1 39197U 13033A 26119.61029878 .00001287 00000+0 15355-3 0 9998 2 39197 97.9366 319.0346 0025736 116.5043 243.8815 14.85782725693165 HISAKI (SPRINT-A) 1 39253U 13049A 26119.37306853 .00000145 00000+0 10961-3 0 9992 2 39253 29.7191 108.1803 0136609 341.1429 18.4119 13.55538378624793 CASSIOPE 1 39265U 13055A 26119.55302513 .00023308 -45796-6 27067-3 0 9991 2 39265 80.9126 125.6137 0302765 225.5413 132.0699 15.21917976660261 STSAT-3 1 39422U 13066G 26119.56638394 .00002506 00000+0 19329-3 0 9998 2 39422 97.6178 90.2744 0009126 180.1137 180.0088 15.02468639676902 SWARM B 1 39451U 13067A 26119.61801030 .00003459 00000+0 12446-3 0 9997 2 39451 87.7479 357.0659 0002415 94.2069 265.9456 15.28263051675821 SWARM A 1 39452U 13067B 26119.55382443 .00011553 00000+0 20599-3 0 9995 2 39452 87.3313 74.2882 0003685 89.1169 271.0514 15.49932999698718 SWARM C 1 39453U 13067C 26119.55376065 .00011613 00000+0 20704-3 0 9994 2 39453 87.3314 72.8693 0003701 88.7504 271.4180 15.49934382698677 BRITE-CA1 (TORONTO) 1 40020U 14033L 26119.59246396 .00001091 00000+0 17084-3 0 9993 2 40020 97.9663 249.4389 0079998 72.8957 288.0993 14.72605007635068 OCO 2 1 40059U 14035A 26119.60545389 .00000473 00000+0 11484-3 0 9994 2 40059 98.1994 61.6478 0001590 77.9440 282.1937 14.57148985628974 BRITE-PL2 (HEWELIUSZ) 1 40119U 14049B 26119.56414427 .00001950 00000+0 18637-3 0 9997 2 40119 97.9034 231.2116 0012779 270.6387 89.3368 14.94407645634187 MMS 1 1 40482U 15011A 26119.66670139 -.00000418 00000+0 00000+0 0 9995 2 40482 71.4656 349.4680 8362960 166.4193 28.9567 0.28286307 1360 MMS 2 1 40483U 15011B 26119.66670139 -.00000418 00000+0 00000+0 0 9996 2 40483 71.4651 349.4683 8362802 166.4206 28.9581 0.28285728 1361 MMS 3 1 40484U 15011C 26119.66670139 -.00000418 00000+0 00000+0 0 9997 2 40484 71.4684 349.4726 8362190 166.4136 28.9583 0.28286256 1367 MMS 4 1 40485U 15011D 26119.66670139 -.00000418 00000+0 00000+0 0 9998 2 40485 71.4654 349.4680 8361747 166.4213 28.9458 0.28286191 1366 ASTROSAT 1 40930U 15052A 26118.24030020 .00001821 00000+0 14027-3 0 9996 2 40930 5.9957 154.8367 0007584 39.2274 320.8403 14.82417667572402 DAMPE 1 41173U 15078A 26119.59786623 .00001544 00000+0 54672-4 0 9993 2 41173 97.4570 124.8291 0010280 246.4827 113.5334 15.30661666577112 PISAT 1 41784U 16059B 26119.57624740 .00001187 00000+0 20982-3 0 9999 2 41784 97.8186 122.1210 0029127 3.9897 356.1536 14.68894249512609 HXMT (HUIYAN) 1 42758U 17034A 26119.38487227 .00004473 00000+0 22467-3 0 9992 2 42758 43.0130 94.6887 0031933 197.9595 162.0127 15.18021835490247 FLYING LAPTOP 1 42831U 17042G 26119.58669337 .00003444 00000+0 27466-3 0 9990 2 42831 97.4463 277.0658 0017909 290.6797 69.2507 15.00833050479165 ZHANGHENG 1-01 (CSES-1) 1 43194U 18015C 26119.51599049 .00007314 00000+0 33446-3 0 9994 2 43194 97.6827 284.2172 0017839 74.8342 285.4864 15.20713074457243 SALSAT 1 46495U 20068K 26119.53425572 .00008222 00000+0 29370-3 0 9993 2 46495 97.8855 119.6659 0011643 110.4415 249.8075 15.29067816307921 IXPE 1 49954U 21121A 26119.66670139 .00011370 00000+0 62699-3 0 9991 2 49954 0.2305 324.4675 0007472 63.7457 357.3437 15.09794224 5343